Regional Weather Roundup
Issued by NWS

Home | Current Version | Previous Version | Graphics & Text | Print | Product List | Glossary On
Versions: 1 2 3 4 5 6 7 8 9 10 11 12 13 14 15 16 17 18 19 20 21 22 23 24 25 26 27 28 29 30 31 32 33 34 35 36 37 38 39 40 41 42 43 44 45 46 47 48 49 50
000
ASUS43 KIND 271909
RWRIN

WEATHER ROUNDUP FOR INDIANA
NATIONAL WEATHER SERVICE INDIANAPOLIS IN
200 PM EST THU NOV 27 2014

NOTE: "FAIR" INDICATES FEW OR NO CLOUDS BELOW 12,000 FEET WITH NO
SIGNIFICANT WEATHER AND/OR OBSTRUCTIONS TO VISIBILITY.

* - STATION DOES NOT REPORT WEATHER SUCH AS PRECIPITATION OR FOG.

+ - STATION NOT QUALITY CONTROLLED BY THE NATIONAL WEATHER SERVICE.
    USE DATA WITH CAUTION...ESPECIALLY DEWPOINT AND RELATIVE
    HUMIDITY OBSERVATIONS.

INZ001>003-010>013-019-020-272000-
NORTHWEST INDIANA

CITY           SKY/WX    TMP DP  RH WIND       PRES   REMARKS
GARY /AIRPORT/ CLOUDY    30  18  59 W20       30.34R WCI  18
KNOX *+        CLOUDY    28  22  76 NW15      30.29R WCI  17
LA PORTE +     LGT SNOW  30  24  79 NW16      30.29R WCI  18
MICHIGAN CITY+ CLOUDY    30  21  69 NW9       30.30S WCI  22
MONTICELLO +   CLOUDY    28  22  78 W14       30.32S WCI  16
RENSSELAER +   CLOUDY    28  25  86 W13G21    30.34S WCI  18
VALPARAISO     CLOUDY    27  19  72 NW9       30.31R WCI  18

$$

LMZ046-743>745-272000-
SOUTHERN LAKE MICHIGAN

STATION/POSITION TIME  TEMP WIND        PRES
                       AIR  DIR/SP/G
                 (UTC) (F)  (DEG/KT/KT) (MB)
MICHIGAN CITY    1900   28  280/ 22/ 25   N/A

$$

INZ004-005-014>016-021>024-272000-
NORTH CENTRAL INDIANA

CITY           SKY/WX    TMP DP  RH WIND       PRES   REMARKS
GOSHEN         LGT SNOW  30  26  85 W18G26    30.23R FOG     WCI  18
LOGANSPORT +   CLOUDY    28  21  74 NW9       30.31S WCI  20
PERU/GRISSOM   CLOUDY    28  25  89 W13       30.29R WCI  17
ROCHESTER +    CLOUDY    32  27  80 W8        30.28S WCI  25
SOUTH BEND     FLURRIES  30  24  78 NW16G25   30.26R WCI  19
WARSAW +       CLOUDY    30  27  86 W18G25    30.25R WCI  18

$$

INZ006>009-017-018-025>027-272000-
NORTHEAST INDIANA

CITY           SKY/WX    TMP DP  RH WIND       PRES   REMARKS
ANGOLA *+      CLOUDY    32  19  59 W9        30.18S WCI  24
AUBURN +       CLOUDY    32  27  80 W16       30.21S WCI  21
FORT WAYNE     LGT SNOW  31  26  82 W17       30.24R WCI  19
HUNTINGTON +   CLOUDY    30  25  79 W13       30.26R WCI  20

$$

INZ028-029-035-036-043>045-051>053-272000-
WEST CENTRAL INDIANA

CITY           SKY/WX    TMP DP  RH WIND       PRES   REMARKS
GREENCASTLE +  CLOUDY    28  21  74 NW6       30.34S WCI  22
LAFAYETTE      CLOUDY    27  20  75 W13       30.34S WCI  16
TERRE HAUTE    CLOUDY    29  21  72 NW13      30.38F WCI  19

$$

INZ030>032-037>040-046>048-054>057-064-065-272000-
CENTRAL INDIANA

CITY           SKY/WX    TMP DP  RH WIND       PRES   REMARKS
CP ATTERBURY + CLOUDY    32  25  74 W9        30.33S WCI  24
FRANKFORT +    CLOUDY    28  24  84 W18G25    30.33S WCI  16
INDIANAPOLIS   PTSUNNY   30  18  60 NW17      30.31S WCI  18
-EAGLE CREEK   CLOUDY    30  20  66 NW16G24   30.31S WCI  19
KOKOMO *+      CLOUDY    28  23  80 W21       30.29S WCI  15
MARION +         N/A     29  22  75 W17       30.28S WCI  17
MT COMFORT *+  MOSUNNY   32  16  51 W14G22    30.30S WCI  22
SHELBYVILLE    CLOUDY    33  24  69 W17       30.30F WCI  22
ZIONSVILLE +   CLOUDY    29  20  68 W15G23    30.31S WCI  18

$$

INZ033-034-041-042-049-050-058-059-272000-
EAST CENTRAL INDIANA

CITY           SKY/WX    TMP DP  RH WIND       PRES   REMARKS
MUNCIE         LGT SNOW  30  23  75 W16G22    30.27S WCI  19

$$

INZ060-061-067>069-081>083-085>088-272000-
SOUTHWEST INDIANA

CITY           SKY/WX    TMP DP  RH WIND       PRES   REMARKS
EVANSVILLE     CLOUDY    31  22  69 NW9       30.44S WCI  23
HUNTINGBURG *+ CLOUDY    32  23  69 NW14      30.41S WCI  22
WASHINGTON +   CLOUDY    29  24  79 W9        30.40F WCI  21

$$

INZ062-063-066-070>080-084-089>092-272000-
SOUTH CENTRAL AND SOUTHEAST INDIANA

CITY           SKY/WX    TMP DP  RH WIND       PRES   REMARKS
BLOOMINGTON    CLOUDY    30  22  72 W10       30.34F WCI  21

$$



USA.gov is the U.S. government's official web portal to all federal, state and local government web resources and services.